This is the latest recevied weather packets stored in our database for station/object LU3HGB-WX. If no packets are shown the sender has not sent any weather packets the latest 10 day(s).
| Time | Temp. | Humidity | Pressure | Rain* | Wind** | Luminosity | Snow |
|---|---|---|---|---|---|---|---|
| 1787927863 | 19.44° C | 43% | 1009 hPa | 0 mm | - | 723 W/m² | - |
| 1787927561 | 19.44° C | 44% | 1009 hPa | 0 mm | - | 714 W/m² | - |
| 1787927263 | 19.44° C | 43% | 1009 hPa | 0 mm | - | 697 W/m² | - |
| 1787926960 | 18.89° C | 44% | 1009 hPa | 0 mm | - | 684 W/m² | - |
| 1787926661 | 18.89° C | 43% | 1010 hPa | 0 mm | - | 669 W/m² | - |
| 1787926359 | 18.33° C | 44% | 1010 hPa | 0 mm | - | 649 W/m² | - |
| 1787926060 | 18.33° C | 45% | 1010 hPa | 0 mm | - | 640 W/m² | - |
| 1787925760 | 18.33° C | 46% | 1010 hPa | 0 mm | - | 624 W/m² | - |
| 1787925460 | 18.33° C | 44% | 1010 hPa | 0 mm | - | 607 W/m² | - |
| 1787925160 | 17.78° C | 45% | 1010 hPa | 0 mm | - | 588 W/m² | - |
| 1787924861 | 17.78° C | 45% | 1010 hPa | 0 mm | - | 572 W/m² | - |
| 1787924560 | 16.67° C | 46% | 1010 hPa | 0 mm | - | 548 W/m² | - |
| 1787924259 | 16.67° C | 48% | 1010 hPa | 0 mm | - | 540 W/m² | - |
| 1787923960 | 16.11° C | 48% | 1010 hPa | 0 mm | - | 520 W/m² | - |
| 1787923659 | 16.11° C | 48% | 1011 hPa | 0 mm | - | 500 W/m² | - |
| 1787923359 | 15.56° C | 49% | 1011 hPa | 0 mm | - | 484 W/m² | - |
| 1787923060 | 15.56° C | 52% | 1011 hPa | 0 mm | - | 474 W/m² | - |
| 1787922763 | 15.56° C | 51% | 1010 hPa | 0 mm | - | 407 W/m² | - |
| 1787922461 | 16.11° C | 49% | 1011 hPa | 0 mm | - | 172 W/m² | - |
| 1787922160 | 16.11° C | 49% | 1010 hPa | 0 mm | - | 311 W/m² | - |
| 1787921860 | 15.56° C | 51% | 1010 hPa | 0 mm | - | 440 W/m² | - |
| 1787921559 | 15° C | 51% | 1010 hPa | 0 mm | - | 382 W/m² | - |
| 1787921260 | 14.44° C | 51% | 1010 hPa | 0 mm | - | 361 W/m² | - |
| 1787920959 | 13.89° C | 55% | 1010 hPa | 0 mm | - | 372 W/m² | - |
| 1787920660 | 13.89° C | 54% | 1011 hPa | 0 mm | - | 158 W/m² | - |
* Rain latest hour (hover to see other rain measurements)
** Current wind speed in m/s (hover to see current wind gust speed)